CDT,Max TemperatureF,Mean TemperatureF,Min TemperatureF,Max Dew PointF,MeanDew PointF,Min DewpointF,Max Humidity, Mean Humidity, Min Humidity, Max Sea Level PressureIn, Mean Sea Level PressureIn, Min Sea Level PressureIn, Max VisibilityMiles, Mean VisibilityMiles, Min VisibilityMiles, Max Wind SpeedMPH, Mean Wind SpeedMPH, Max Gust SpeedMPH,PrecipitationIn, CloudCover, Events, WindDirDegrees
2012-8-1,99,82,67,66,63,57,88,59,25,29.97,29.90,29.80,10,10,10,13,3,16,0.00,0,,149
2012-8-2,92,80,68,71,68,64,93,69,42,29.91,29.85,29.81,10,10,7,17,7,29,0.03,1,Rain,353
2012-8-3,97,82,68,70,66,63,90,64,31,29.91,29.81,29.73,10,10,10,12,5,17,0.00,0,,110
2012-8-4,80,70,61,68,60,52,89,67,39,30.09,29.95,29.79,10,10,2,26,8,41,0.07,1,Rain,344
2012-8-5,84,70,56,61,56,52,90,63,34,30.27,30.19,30.09,10,10,10,9,5,,0.00,0,,348
2012-8-6,97,76,56,61,54,46,88,54,18,30.16,30.06,29.96,10,10,10,16,6,23,0.00,0,,169
2012-8-7,101,81,62,67,60,56,85,54,25,29.99,29.95,29.91,10,10,10,20,4,30,0.12,1,Rain,227
2012-8-8,95,80,66,68,64,60,90,66,34,30.00,29.93,29.84,10,10,5,15,4,38,0.04,0,Rain,223
2012-8-9,85,74,63,64,60,56,93,68,37,30.08,30.04,29.99,10,10,7,14,7,20,0.03,2,,349
2012-8-10,80,66,53,57,54,51,93,69,37,30.16,30.11,30.05,10,10,10,10,6,17,0.00,0,,8
2012-8-11,82,66,51,62,54,49,92,67,33,30.11,30.03,29.94,10,10,10,10,3,,0.00,2,Rain,121
2012-8-12,82,72,61,62,59,56,90,69,47,30.00,29.92,29.87,10,10,10,18,7,28,0.00,6,,338
2012-8-13,79,70,57,61,55,49,92,69,35,30.14,30.07,30.00,10,10,5,15,8,22,0.00,5,,346
2012-8-14,87,69,51,61,56,49,92,63,34,30.05,29.96,29.86,10,10,10,17,6,24,0.00,1,,198
2012-8-15,93,75,57,66,60,55,92,62,33,29.89,29.81,29.71,10,10,10,21,9,29,0.00,0,,181
2012-8-16,75,65,52,61,50,42,78,57,31,30.13,30.04,29.85,10,10,10,18,13,28,0.00,2,Rain,334
2012-8-17,79,62,45,51,44,38,89,57,24,30.17,30.11,30.02,10,10,2,8,4,,0.00,0,,346
2012-8-18,72,59,46,56,50,43,92,77,46,30.09,30.02,29.96,10,10,4,17,4,22,0.16,4,Rain,60
2012-8-19,79,62,44,56,49,43,96,65,30,30.12,30.06,30.00,10,9,2,7,4,,0.00,0,,321
2012-8-20,88,68,49,57,49,42,93,57,20,30.05,30.00,29.92,10,10,10,9,2,22,0.00,2,,337
2012-8-21,93,72,52,60,52,45,91,57,19,30.04,30.00,29.95,10,10,10,12,4,,0.00,0,,158
2012-8-22,93,74,55,58,53,50,83,52,25,30.00,29.95,29.88,10,10,10,20,7,31,0.00,0,,176
2012-8-23,92,78,64,63,57,49,65,48,32,29.94,29.90,29.85,10,10,10,22,10,29,0.00,1,,187
2012-8-24,78,71,64,67,65,62,94,82,63,29.93,29.89,29.87,10,8,2,17,9,24,0.17,5,Rain,158
2012-8-25,74,69,64,69,66,61,95,89,81,29.93,29.88,29.84,10,7,2,12,7,,0.59,7,Rain,135
2012-8-26,80,73,64,68,66,63,96,82,59,30.09,30.00,29.92,7,4,0,7,2,,0.00,6,Fog,346
2012-8-27,92,75,58,68,62,57,96,70,32,30.19,30.12,30.07,10,7,0,10,3,17,0.00,0,Fog,168
2012-8-28,96,78,60,63,57,48,93,58,19,30.13,30.05,29.93,10,10,7,17,6,23,0.00,0,,185
2012-8-29,98,79,60,60,54,41,88,49,15,29.98,29.92,29.85,10,10,10,21,8,33,0.00,0,,192
2012-8-30,100,82,63,60,57,50,84,50,18,29.95,29.90,29.86,10,10,7,20,9,25,0.00,0,,187
2012-8-31,97,78,59,67,59,50,91,62,21,30.01,29.98,29.94,10,10,7,12,4,16,0.00,0,,105